TimeMST,TemperatureF,Dew PointF,Humidity,Sea Level PressureIn,VisibilityMPH,Wind Direction,Wind SpeedMPH,Gust SpeedMPH,PrecipitationIn,Events,Conditions,WindDirDegrees,DateUTC
12:15 AM,26.6,12.2,55,30.30,10.0,Calm,Calm,-,N/A,,Clear,0,2012-11-17 07:15:00
12:35 AM,24.8,12.2,59,30.30,10.0,NNW,3.5,-,N/A,,Clear,330,2012-11-17 07:35:00
12:55 AM,26.6,12.2,55,30.29,10.0,North,3.5,-,N/A,,Clear,360,2012-11-17 07:55:00
1:15 AM,28.4,15.8,59,30.29,10.0,Calm,Calm,-,N/A,,Clear,0,2012-11-17 08:15:00
1:35 AM,21.2,10.4,63,30.29,10.0,Calm,Calm,-,N/A,,Clear,0,2012-11-17 08:35:00
1:55 AM,21.2,12.2,68,30.29,10.0,North,5.8,-,N/A,,Clear,350,2012-11-17 08:55:00
2:15 AM,21.2,10.4,63,30.29,10.0,North,5.8,-,N/A,,Clear,10,2012-11-17 09:15:00
2:35 AM,24.8,12.2,59,30.29,10.0,North,9.2,-,N/A,,Clear,10,2012-11-17 09:35:00
2:55 AM,24.8,12.2,59,30.29,10.0,North,5.8,-,N/A,,Clear,360,2012-11-17 09:55:00
3:15 AM,19.4,10.4,68,30.29,10.0,NNE,9.2,-,N/A,,Clear,20,2012-11-17 10:15:00
3:35 AM,23.0,14.0,68,30.29,10.0,Calm,Calm,-,N/A,,Clear,0,2012-11-17 10:35:00
3:55 AM,21.2,12.2,68,30.29,10.0,Calm,Calm,-,N/A,,Clear,0,2012-11-17 10:55:00
4:15 AM,23.0,12.2,63,30.29,10.0,Calm,Calm,-,N/A,,Clear,0,2012-11-17 11:15:00
4:35 AM,24.8,15.8,69,30.29,10.0,Calm,Calm,-,N/A,,Clear,0,2012-11-17 11:35:00
4:55 AM,26.6,15.8,64,30.29,10.0,NNE,4.6,-,N/A,,Clear,20,2012-11-17 11:55:00
5:15 AM,24.8,14.0,64,30.29,10.0,North,3.5,-,N/A,,Clear,360,2012-11-17 12:15:00
5:35 AM,21.2,10.4,63,30.29,10.0,North,5.8,-,N/A,,Clear,360,2012-11-17 12:35:00
5:55 AM,19.4,10.4,68,30.30,10.0,North,4.6,-,N/A,,Clear,360,2012-11-17 12:55:00
6:15 AM,19.4,10.4,68,30.30,10.0,North,5.8,-,N/A,,Clear,10,2012-11-17 13:15:00
6:35 AM,19.4,10.4,68,30.31,10.0,North,6.9,-,N/A,,Clear,10,2012-11-17 13:35:00
6:55 AM,21.2,12.2,68,30.31,10.0,NNE,6.9,-,N/A,,Clear,20,2012-11-17 13:55:00
7:15 AM,24.8,14.0,64,30.32,10.0,NNE,8.1,-,N/A,,Clear,20,2012-11-17 14:15:00
7:35 AM,28.4,15.8,59,30.32,10.0,North,3.5,-,N/A,,Clear,360,2012-11-17 14:35:00
7:55 AM,30.2,17.6,60,30.32,10.0,North,4.6,-,N/A,,Clear,350,2012-11-17 14:55:00
8:15 AM,32.0,15.8,51,30.33,10.0,North,3.5,-,N/A,,Clear,360,2012-11-17 15:15:00
8:35 AM,35.6,17.6,48,30.34,10.0,Calm,Calm,-,N/A,,Clear,0,2012-11-17 15:35:00
8:55 AM,39.2,19.4,45,30.34,10.0,Calm,Calm,-,N/A,,Clear,0,2012-11-17 15:55:00
9:15 AM,42.8,19.4,39,30.33,10.0,Calm,Calm,-,N/A,,Clear,0,2012-11-17 16:15:00
9:35 AM,46.4,19.4,34,30.33,10.0,Calm,Calm,-,N/A,,Clear,0,2012-11-17 16:35:00
9:55 AM,46.4,19.4,34,30.33,10.0,Calm,Calm,-,N/A,,Clear,0,2012-11-17 16:55:00
10:15 AM,48.2,21.2,34,30.32,10.0,SE,4.6,-,N/A,,Clear,140,2012-11-17 17:15:00
10:35 AM,50.0,21.2,32,30.31,10.0,SSE,5.8,-,N/A,,Clear,150,2012-11-17 17:35:00
10:55 AM,51.8,23.0,33,30.31,10.0,WSW,5.8,-,N/A,,Clear,240,2012-11-17 17:55:00
11:15 AM,51.8,24.8,35,30.30,10.0,WSW,5.8,-,N/A,,Clear,250,2012-11-17 18:15:00
11:35 AM,53.6,26.6,35,30.29,10.0,SW,6.9,-,N/A,,Clear,230,2012-11-17 18:35:00
11:55 AM,55.4,24.8,31,30.27,10.0,WSW,11.5,-,N/A,,Clear,240,2012-11-17 18:55:00
12:15 PM,53.6,24.8,33,30.26,10.0,South,9.2,-,N/A,,Clear,180,2012-11-17 19:15:00
12:35 PM,55.4,26.6,33,30.25,10.0,ESE,4.6,-,N/A,,Clear,120,2012-11-17 19:35:00
12:55 PM,55.4,26.6,33,30.24,10.0,SSW,6.9,-,N/A,,Clear,200,2012-11-17 19:55:00
1:15 PM,55.4,26.6,33,30.23,10.0,SSW,9.2,-,N/A,,Clear,210,2012-11-17 20:15:00
1:35 PM,57.2,26.6,31,30.23,10.0,SW,10.4,16.1,N/A,,Clear,220,2012-11-17 20:35:00
1:55 PM,57.2,24.8,29,30.22,10.0,SW,9.2,-,N/A,,Clear,220,2012-11-17 20:55:00
2:15 PM,57.2,24.8,29,30.22,10.0,WSW,10.4,-,N/A,,Clear,240,2012-11-17 21:15:00
2:35 PM,57.2,24.8,29,30.21,10.0,SW,8.1,-,N/A,,Clear,230,2012-11-17 21:35:00
2:55 PM,57.2,24.8,29,30.21,10.0,SSW,10.4,-,N/A,,Clear,210,2012-11-17 21:55:00
3:15 PM,55.4,24.8,31,30.21,10.0,SSW,11.5,16.1,N/A,,Clear,200,2012-11-17 22:15:00
3:35 PM,53.6,23.0,30,30.21,10.0,SSW,11.5,-,N/A,,Clear,210,2012-11-17 22:35:00
3:55 PM,53.6,23.0,30,30.21,10.0,SW,9.2,-,N/A,,Clear,220,2012-11-17 22:55:00
4:15 PM,50.0,21.2,32,30.20,10.0,SW,11.5,-,N/A,,Clear,230,2012-11-17 23:15:00
4:35 PM,48.2,21.2,34,30.20,10.0,WSW,13.8,-,N/A,,Clear,240,2012-11-17 23:35:00
4:55 PM,46.4,21.2,37,30.20,10.0,SW,11.5,-,N/A,,Clear,230,2012-11-17 23:55:00
5:15 PM,46.4,21.2,37,30.21,10.0,WSW,11.5,-,N/A,,Clear,240,2012-11-18 00:15:00
5:35 PM,44.6,23.0,43,30.21,10.0,WSW,10.4,-,N/A,,Clear,240,2012-11-18 00:35:00
5:55 PM,44.6,24.8,46,30.22,10.0,Calm,Calm,-,N/A,,Clear,0,2012-11-18 00:55:00
6:15 PM,39.2,21.2,49,30.22,10.0,Calm,Calm,-,N/A,,Clear,0,2012-11-18 01:15:00
6:35 PM,42.8,24.8,49,30.23,10.0,Calm,Calm,-,N/A,,Clear,0,2012-11-18 01:35:00
6:55 PM,39.2,21.2,49,30.23,10.0,NE,4.6,-,N/A,,Clear,50,2012-11-18 01:55:00
7:15 PM,35.6,21.2,56,30.23,10.0,ENE,3.5,-,N/A,,Clear,60,2012-11-18 02:15:00
7:35 PM,37.4,24.8,60,30.23,10.0,Calm,Calm,-,N/A,,Clear,0,2012-11-18 02:35:00
7:55 PM,35.6,19.4,52,30.23,10.0,East,4.6,-,N/A,,Clear,80,2012-11-18 02:55:00
8:15 PM,35.6,21.2,56,30.23,10.0,NE,5.8,-,N/A,,Clear,50,2012-11-18 03:15:00
8:35 PM,35.6,21.2,56,30.23,10.0,NE,4.6,-,N/A,,Clear,50,2012-11-18 03:35:00
8:55 PM,33.8,21.2,60,30.23,10.0,East,5.8,-,N/A,,Clear,80,2012-11-18 03:55:00
9:15 PM,32.0,19.4,60,30.23,10.0,East,8.1,-,N/A,,Clear,90,2012-11-18 04:15:00
9:35 PM,30.2,19.4,64,30.23,10.0,East,5.8,-,N/A,,Clear,80,2012-11-18 04:35:00
9:55 PM,28.4,17.6,64,30.23,10.0,North,4.6,-,N/A,,Clear,350,2012-11-18 04:55:00
10:15 PM,30.2,19.4,64,30.22,10.0,Calm,Calm,-,N/A,,Clear,0,2012-11-18 05:15:00
10:35 PM,28.4,17.6,64,30.22,10.0,North,4.6,-,N/A,,Clear,360,2012-11-18 05:35:00
10:55 PM,26.6,17.6,69,30.23,10.0,North,5.8,-,N/A,,Clear,360,2012-11-18 05:55:00
11:15 PM,28.4,17.6,64,30.23,10.0,North,4.6,-,N/A,,Clear,10,2012-11-18 06:15:00
11:35 PM,28.4,19.4,69,30.23,10.0,North,3.5,-,N/A,,Clear,10,2012-11-18 06:35:00
11:55 PM,26.6,17.6,69,30.23,10.0,North,5.8,-,N/A,,Scattered Clouds,360,2012-11-18 06:55:00